933  
ASUS42 KRAH 210810  
RWRRAH  
NORTH CAROLINA WEATHER ROUNDUP  
NATIONAL WEATHER SERVICE RALEIGH NC  
400 AM EDT FRI JUL 21 2017  
 
NOTE: "FAIR" INDICATES FEW OR NO CLOUDS BELOW 12,000 FEET WITH NO  
SIGNIFICANT WEATHER AND/OR S TO VISIBILITY
.  
 
NCZ001-053-055-056-065-067-210900-  
WESTERN NORTH CAROLINA  
 
CITY SKY/WX TMP DP RH WIND PRES REMARKS
 
ASHEVILLE CLEAR 68 68 100 CALM 30.12F  
JEFFERSON CLEAR 70 58 65 CALM 30.16F  
HICKORY CLEAR 73 71 93 CALM 30.03F  
RUTHERFORDTON CLEAR 73 73 100 CALM 30.04F  
MOUNT AIRY CLEAR 71 67 85 CALM 30.05S  
BOONE CLEAR 64 63 98 CALM 30.17F FOG  

 
 
NCZ021-022-025-041-071-084-088-210900-  
CENTRAL NORTH CAROLINA  
 
CITY SKY/WX TMP DP RH WIND PRES REMARKS
 
CHARLOTTE PTCLDY 76 70 82 CALM 30.01F  
GREENSBORO CLEAR 76 74 93 CALM 30.00S  
WINSTON-SALEM CLEAR 79 67 66 NW5 30.02F  
RALEIGH-DURHAM PTCLDY 76 72 87 SW6 29.98F  
FORT BRAGG CLEAR 77 73 87 SW6 29.98S  
FAYETTEVILLE CLEAR 81 75 82 SW7 29.98F  
BURLINGTON CLEAR 76 72 87 CALM 29.98F  
LAURINBURG PTCLDY 76 76 100 SW3 29.99F  

 
 
NCZ011-015-027-028-043-044-047-080-103-210900-  
NORTHEASTERN NORTH CAROLINA  
 
CITY SKY/WX TMP DP RH WIND PRES REMARKS
 
ROCKY MT-WILSO CLEAR 75 75 100 SW3 29.97F  
GREENVILLE CLEAR 77 73 88 SW5 29.99F  
WASHINGTON CLEAR 76 73 90 SW5 29.98F  
ELIZABETH CITY CLOUDY 76 75 97 SW5 29.96F  
MANTEO CLEAR 77 73 87 W8 29.98S  
CAPE HATTERAS PTCLDY 79 75 87 SW6 29.99F  

 
 
NCZ078-087-090-091-093-098-101-210900-  
SOUTHEASTERN NORTH CAROLINA  
 
CITY SKY/WX TMP DP RH WIND PRES REMARKS
 
LUMBERTON CLEAR 75 74 96 SW5 29.98F  
GOLDSBORO CLEAR 76 76 100 S6 29.96F  
KINSTON CLEAR 75 73 93 S5 29.99S  
KENANSVILLE PTCLDY 73 73 100 CALM 29.99F FOG  
NEW BERN CLEAR 75 75 100 SW5 30.00F  
CHERRY POINT NOT AVBL  
BEAUFORT PTCLDY 80 78 94 SW9 29.99F  
JACKSONVILLE PTCLDY 76 76 100 S6 29.98F  
WILMINGTON CLEAR 77 76 96 SW6 29.99F  

 
 
 
 
CLICK HERE TO GO TO PREVIOUS BULLETINS.

The Nexlab NC Page Main Text Page